Time,TemperatureF,DewpointF,PressureIn,WindDirection,WindDirectionDegrees,WindSpeedMPH,WindSpeedGustMPH,Humidity,HourlyPrecipIn,Conditions,Clouds,dailyrainin,SolarRadiationWatts/m^2,SoftwareType,DateUTC
2013-02-26 00:00:00,59.4,58.3,29.83,NE,49,5.0,13.0,96,0.02,,,1.24,0.0,meteohub,2013-02-26 05:00:00,
2013-02-26 00:05:00,58.5,57.4,29.83,NNW,336,5.0,13.0,96,0.02,,,0.00,0.0,meteohub,2013-02-26 05:05:00,
2013-02-26 00:10:00,57.4,56.3,29.84,NE,53,4.0,13.0,96,0.03,,,0.01,0.0,meteohub,2013-02-26 05:10:00,
2013-02-26 00:15:00,56.7,55.6,29.83,NE,53,9.0,13.0,96,0.03,,,0.01,0.0,meteohub,2013-02-26 05:15:00,
2013-02-26 00:20:00,55.8,54.7,29.84,NE,40,7.0,14.0,96,0.04,,,0.02,0.0,meteohub,2013-02-26 05:20:00,
2013-02-26 00:25:00,55.2,54.1,29.84,North,0,9.0,14.0,96,0.03,,,0.02,0.0,meteohub,2013-02-26 05:25:00,
2013-02-26 00:30:00,54.9,53.8,29.84,NE,38,4.0,14.0,96,0.05,,,0.04,0.0,meteohub,2013-02-26 05:30:00,
2013-02-26 00:35:00,54.7,53.6,29.83,NE,41,4.0,11.0,96,0.07,,,0.06,0.0,meteohub,2013-02-26 05:35:00,
2013-02-26 00:40:00,54.3,53.2,29.83,ENE,63,5.0,11.0,96,0.07,,,0.06,0.0,meteohub,2013-02-26 05:40:00,
2013-02-26 00:45:00,54.1,53.1,29.82,NNE,21,6.0,10.0,96,0.08,,,0.07,0.0,meteohub,2013-02-26 05:45:00,
2013-02-26 00:50:00,54.0,52.9,29.83,NE,43,9.0,10.0,96,0.08,,,0.08,0.0,meteohub,2013-02-26 05:50:00,
2013-02-26 00:55:00,53.6,52.5,29.82,North,0,8.0,12.0,96,0.08,,,0.08,0.0,meteohub,2013-02-26 05:55:00,
2013-02-26 01:00:00,53.4,52.3,29.82,NE,40,2.0,12.0,96,0.08,,,0.08,0.0,meteohub,2013-02-26 06:00:00,
2013-02-26 01:05:00,53.4,52.3,29.82,NNE,27,2.0,12.0,96,0.08,,,0.08,0.0,meteohub,2013-02-26 06:05:00,
2013-02-26 01:10:00,53.4,52.3,29.81,NNE,31,3.0,9.0,96,0.07,,,0.08,0.0,meteohub,2013-02-26 06:10:00,
2013-02-26 01:15:00,53.4,52.3,29.81,NE,41,4.0,9.0,96,0.07,,,0.08,0.0,meteohub,2013-02-26 06:15:00,
2013-02-26 01:20:00,53.8,52.7,29.81,North,0,4.0,11.0,96,0.06,,,0.08,0.0,meteohub,2013-02-26 06:20:00,
2013-02-26 01:25:00,54.0,52.9,29.81,NE,40,8.0,11.0,96,0.05,,,0.08,0.0,meteohub,2013-02-26 06:25:00,
2013-02-26 01:30:00,54.0,52.9,29.80,ENE,72,4.0,12.0,96,0.03,,,0.08,0.0,meteohub,2013-02-26 06:30:00,
2013-02-26 01:35:00,54.1,53.1,29.80,NNE,29,4.0,12.0,96,0.02,,,0.08,0.0,meteohub,2013-02-26 06:35:00,
2013-02-26 01:40:00,54.3,53.2,29.79,NE,40,4.0,12.0,96,0.01,,,0.08,0.0,meteohub,2013-02-26 06:40:00,
2013-02-26 01:45:00,54.3,53.2,29.79,North,10,3.0,11.0,96,0.01,,,0.08,0.0,meteohub,2013-02-26 06:45:00,
2013-02-26 01:50:00,54.7,53.6,29.78,NNE,25,2.0,13.0,96,0.00,,,0.08,0.0,meteohub,2013-02-26 06:50:00,
2013-02-26 01:55:00,54.7,53.6,29.78,NE,35,6.0,13.0,96,0.00,,,0.08,0.0,meteohub,2013-02-26 06:55:00,
2013-02-26 02:00:00,54.9,53.8,29.78,NE,54,3.0,13.0,96,0.00,,,0.08,0.0,meteohub,2013-02-26 07:00:00,
2013-02-26 02:05:00,54.9,53.8,29.78,NE,52,5.0,10.0,96,0.00,,,0.08,0.0,meteohub,2013-02-26 07:05:00,
2013-02-26 02:10:00,55.0,54.0,29.78,ENE,78,8.0,10.0,96,0.00,,,0.08,0.0,meteohub,2013-02-26 07:10:00,
2013-02-26 02:15:00,55.0,54.0,29.78,ENE,63,1.0,10.0,96,0.00,,,0.08,0.0,meteohub,2013-02-26 07:15:00,
2013-02-26 02:20:00,55.2,54.1,29.77,NNE,33,4.0,10.0,96,0.00,,,0.08,0.0,meteohub,2013-02-26 07:20:00,
2013-02-26 02:25:00,55.2,54.1,29.76,ENE,76,5.0,10.0,96,0.00,,,0.08,0.0,meteohub,2013-02-26 07:25:00,
2013-02-26 02:30:00,55.4,54.3,29.76,ENE,59,3.0,8.0,96,0.00,,,0.08,0.0,meteohub,2013-02-26 07:30:00,
2013-02-26 02:35:00,55.6,54.5,29.75,SE,128,5.0,8.0,96,0.00,,,0.08,0.0,meteohub,2013-02-26 07:35:00,
2013-02-26 02:40:00,55.8,54.7,29.75,NE,45,4.0,8.0,96,0.00,,,0.08,0.0,meteohub,2013-02-26 07:40:00,
2013-02-26 02:45:00,55.8,54.7,29.75,NE,38,0.0,8.0,96,0.00,,,0.08,0.0,meteohub,2013-02-26 07:45:00,
2013-02-26 02:50:00,55.9,54.9,29.75,NE,56,0.0,8.0,96,0.00,,,0.08,0.0,meteohub,2013-02-26 07:50:00,
2013-02-26 02:55:00,56.1,55.0,29.75,NNE,28,1.0,8.0,96,0.00,,,0.08,0.0,meteohub,2013-02-26 07:55:00,
2013-02-26 03:00:00,56.5,55.4,29.75,NE,44,1.0,7.0,96,0.00,,,0.08,0.0,meteohub,2013-02-26 08:00:00,
2013-02-26 03:05:00,56.5,55.4,29.75,NE,52,4.0,6.0,96,0.00,,,0.08,0.0,meteohub,2013-02-26 08:05:00,
2013-02-26 03:10:00,56.7,55.6,29.74,NE,39,4.0,7.0,96,0.00,,,0.08,0.0,meteohub,2013-02-26 08:10:00,
2013-02-26 03:15:00,56.7,55.6,29.74,NNE,28,2.0,7.0,96,0.00,,,0.08,0.0,meteohub,2013-02-26 08:15:00,
2013-02-26 03:20:00,56.8,55.9,29.74,ENE,72,2.0,7.0,97,0.00,,,0.08,0.0,meteohub,2013-02-26 08:20:00,
2013-02-26 03:25:00,57.0,55.9,29.73,NW,311,0.0,7.0,96,0.00,,,0.08,0.0,meteohub,2013-02-26 08:25:00,
2013-02-26 03:30:00,57.4,56.3,29.73,NE,36,1.0,5.0,96,0.00,,,0.08,0.0,meteohub,2013-02-26 08:30:00,
2013-02-26 03:35:00,57.6,56.7,29.73,NE,52,1.0,4.0,97,0.00,,,0.08,0.0,meteohub,2013-02-26 08:35:00,
2013-02-26 03:40:00,57.7,56.7,29.73,ENE,64,3.0,5.0,96,0.00,,,0.08,0.0,meteohub,2013-02-26 08:40:00,
2013-02-26 03:45:00,58.1,57.2,29.72,North,0,0.0,5.0,97,0.00,,,0.08,0.0,meteohub,2013-02-26 08:45:00,
2013-02-26 03:50:00,58.3,57.4,29.71,NNE,30,1.0,5.0,97,0.00,,,0.08,0.0,meteohub,2013-02-26 08:50:00,
2013-02-26 03:55:00,58.5,57.4,29.71,NNE,30,2.0,4.0,96,0.00,,,0.08,0.0,meteohub,2013-02-26 08:55:00,
2013-02-26 04:00:00,58.6,57.6,29.70,NNE,30,1.0,3.0,96,0.00,,,0.08,0.0,meteohub,2013-02-26 09:00:00,
2013-02-26 04:05:00,58.8,57.9,29.71,NNE,30,0.0,3.0,97,0.00,,,0.08,0.0,meteohub,2013-02-26 09:05:00,
2013-02-26 04:10:00,59.0,58.1,29.70,NNE,30,0.0,3.0,97,0.00,,,0.08,0.0,meteohub,2013-02-26 09:10:00,
2013-02-26 04:15:00,59.0,58.1,29.70,NNE,30,0.0,2.0,97,0.00,,,0.08,0.0,meteohub,2013-02-26 09:15:00,
2013-02-26 04:20:00,59.0,58.1,29.70,NNE,30,1.0,2.0,97,0.00,,,0.08,0.0,meteohub,2013-02-26 09:20:00,
2013-02-26 04:25:00,59.0,58.1,29.70,WNW,300,2.0,2.0,97,0.00,,,0.08,0.0,meteohub,2013-02-26 09:25:00,
2013-02-26 04:30:00,59.0,58.1,29.70,WNW,299,0.0,2.0,97,0.00,,,0.08,0.0,meteohub,2013-02-26 09:30:00,
2013-02-26 04:35:00,59.0,58.1,29.70,WNW,299,0.0,2.0,97,0.01,,,0.09,0.0,meteohub,2013-02-26 09:35:00,
2013-02-26 04:40:00,59.2,58.3,29.70,WNW,299,0.0,2.0,97,0.01,,,0.09,0.0,meteohub,2013-02-26 09:40:00,
2013-02-26 04:45:00,59.9,59.0,29.70,WNW,286,0.0,2.0,97,0.01,,,0.09,0.0,meteohub,2013-02-26 09:45:00,
2013-02-26 04:50:00,60.3,59.4,29.70,WNW,286,0.0,2.0,97,0.01,,,0.09,0.0,meteohub,2013-02-26 09:50:00,
2013-02-26 04:55:00,61.0,60.1,29.70,ESE,102,0.0,2.0,97,0.01,,,0.09,0.0,meteohub,2013-02-26 09:55:00,
2013-02-26 05:00:00,62.6,61.7,29.70,ESE,105,0.0,2.0,97,0.01,,,0.09,0.0,meteohub,2013-02-26 10:00:00,
2013-02-26 05:05:00,63.3,62.4,29.70,South,190,1.0,2.0,97,0.01,,,0.09,0.0,meteohub,2013-02-26 10:05:00,
2013-02-26 05:10:00,64.0,63.1,29.70,ESE,123,3.0,3.0,97,0.01,,,0.09,0.0,meteohub,2013-02-26 10:10:00,
2013-02-26 05:15:00,64.8,63.9,29.69,ESE,106,2.0,2.0,97,0.01,,,0.09,0.0,meteohub,2013-02-26 10:15:00,
2013-02-26 05:20:00,65.1,64.2,29.70,ESE,112,1.0,7.0,97,0.01,,,0.09,0.0,meteohub,2013-02-26 10:20:00,
2013-02-26 05:25:00,65.1,64.2,29.69,SSE,159,1.0,7.0,97,0.02,,,0.10,0.0,meteohub,2013-02-26 10:25:00,
2013-02-26 05:30:00,65.5,64.6,29.69,SE,125,2.0,6.0,97,0.02,,,0.10,0.0,meteohub,2013-02-26 10:30:00,
2013-02-26 05:35:00,65.5,64.6,29.69,SE,132,1.0,7.0,97,0.02,,,0.10,0.0,meteohub,2013-02-26 10:35:00,
2013-02-26 05:40:00,65.7,64.8,29.68,ESE,108,0.0,7.0,97,0.01,,,0.10,0.0,meteohub,2013-02-26 10:40:00,
2013-02-26 05:45:00,66.0,65.1,29.68,SE,131,1.0,6.0,97,0.01,,,0.10,0.0,meteohub,2013-02-26 10:45:00,
2013-02-26 05:50:00,66.4,65.5,29.68,ENE,75,3.0,5.0,97,0.02,,,0.11,0.0,meteohub,2013-02-26 10:50:00,
2013-02-26 05:55:00,66.7,65.8,29.68,SE,130,3.0,7.0,97,0.02,,,0.11,0.0,meteohub,2013-02-26 10:55:00,
2013-02-26 06:00:00,67.1,66.2,29.67,East,95,7.0,10.0,97,0.02,,,0.11,0.0,meteohub,2013-02-26 11:00:00,
2013-02-26 06:05:00,67.3,66.4,29.66,ENE,73,5.0,10.0,97,0.02,,,0.11,0.0,meteohub,2013-02-26 11:05:00,
2013-02-26 06:10:00,67.1,66.2,29.66,ESE,102,3.0,10.0,97,0.02,,,0.11,0.0,meteohub,2013-02-26 11:10:00,
2013-02-26 06:15:00,67.1,66.2,29.66,South,186,1.0,10.0,97,0.02,,,0.12,0.0,meteohub,2013-02-26 11:15:00,
2013-02-26 06:20:00,67.1,66.2,29.66,South,184,3.0,9.0,97,0.02,,,0.12,0.0,meteohub,2013-02-26 11:20:00,
2013-02-26 06:25:00,66.9,66.0,29.67,SSE,155,4.0,9.0,97,0.02,,,0.12,0.0,meteohub,2013-02-26 11:25:00,
2013-02-26 06:30:00,66.7,65.8,29.67,South,171,2.0,8.0,97,0.02,,,0.12,0.0,meteohub,2013-02-26 11:30:00,
2013-02-26 06:35:00,66.4,65.5,29.66,SSE,148,3.0,7.0,97,0.02,,,0.12,0.0,meteohub,2013-02-26 11:35:00,
2013-02-26 06:40:00,66.0,65.1,29.67,SE,142,2.0,7.0,97,0.03,,,0.13,0.0,meteohub,2013-02-26 11:40:00,
2013-02-26 06:45:00,65.8,64.9,29.67,ESE,119,1.0,7.0,97,0.03,,,0.13,0.0,meteohub,2013-02-26 11:45:00,
2013-02-26 06:50:00,65.7,64.8,29.66,SSE,156,0.0,7.0,97,0.03,,,0.14,0.0,meteohub,2013-02-26 11:50:00,
2013-02-26 06:55:00,65.5,64.6,29.66,SSE,158,0.0,5.0,97,0.04,,,0.15,0.0,meteohub,2013-02-26 11:55:00,
2013-02-26 07:00:00,65.3,64.4,29.66,SSE,157,0.0,5.0,97,0.04,,,0.15,0.0,meteohub,2013-02-26 12:00:00,
2013-02-26 07:05:00,65.1,64.2,29.67,SSE,158,0.0,4.0,97,0.05,,,0.16,0.0,meteohub,2013-02-26 12:05:00,
2013-02-26 07:10:00,65.1,64.2,29.66,SSE,157,0.0,3.0,97,0.05,,,0.16,0.0,meteohub,2013-02-26 12:10:00,
2013-02-26 07:15:00,64.9,64.0,29.67,SE,128,0.0,3.0,97,0.04,,,0.16,0.0,meteohub,2013-02-26 12:15:00,
2013-02-26 07:20:00,64.9,64.0,29.66,ESE,112,0.0,4.0,97,0.04,,,0.16,0.0,meteohub,2013-02-26 12:20:00,
2013-02-26 07:25:00,64.9,64.0,29.66,ESE,117,0.0,4.0,97,0.04,,,0.16,0.0,meteohub,2013-02-26 12:25:00,
2013-02-26 07:30:00,64.9,64.0,29.66,SE,130,0.0,4.0,97,0.04,,,0.16,0.0,meteohub,2013-02-26 12:30:00,
2013-02-26 07:35:00,64.9,64.0,29.66,ESE,117,2.0,5.0,97,0.03,,,0.16,9.0,meteohub,2013-02-26 12:35:00,
2013-02-26 07:40:00,64.9,64.0,29.67,SSE,157,0.0,5.0,97,0.03,,,0.16,14.0,meteohub,2013-02-26 12:40:00,
2013-02-26 07:45:00,64.9,64.0,29.67,SSE,157,0.0,5.0,97,0.03,,,0.16,12.0,meteohub,2013-02-26 12:45:00,
2013-02-26 07:50:00,64.9,64.0,29.66,SSE,150,0.0,4.0,97,0.02,,,0.16,16.0,meteohub,2013-02-26 12:50:00,
2013-02-26 07:55:00,64.9,64.0,29.66,SSE,157,2.0,5.0,97,0.01,,,0.16,21.0,meteohub,2013-02-26 12:55:00,
2013-02-26 08:00:00,64.9,64.0,29.66,SSE,165,1.0,5.0,97,0.01,,,0.16,18.0,meteohub,2013-02-26 13:00:00,
2013-02-26 08:05:00,64.9,64.0,29.66,SE,140,4.0,5.0,97,0.00,,,0.16,56.0,meteohub,2013-02-26 13:05:00,
2013-02-26 08:10:00,65.1,64.2,29.67,ESE,115,9.0,9.0,97,0.00,,,0.16,21.0,meteohub,2013-02-26 13:10:00,
2013-02-26 08:15:00,65.1,64.2,29.67,SSE,163,3.0,8.0,97,0.00,,,0.16,25.0,meteohub,2013-02-26 13:15:00,
2013-02-26 08:20:00,65.3,64.4,29.68,South,169,9.0,9.0,97,0.01,,,0.17,21.0,meteohub,2013-02-26 13:20:00,
2013-02-26 08:25:00,65.5,64.6,29.68,SSW,206,3.0,12.0,97,0.01,,,0.17,5.0,meteohub,2013-02-26 13:25:00,
2013-02-26 08:30:00,65.5,64.6,29.66,SE,144,0.0,12.0,97,0.01,,,0.22,16.0,meteohub,2013-02-26 13:30:00,
2013-02-26 08:35:00,65.7,64.8,29.66,SSE,147,6.0,17.0,97,0.07,,,0.22,19.0,meteohub,2013-02-26 13:35:00,
2013-02-26 08:40:00,65.7,64.8,29.67,South,173,3.0,17.0,97,0.07,,,0.23,25.0,meteohub,2013-02-26 13:40:00,
2013-02-26 08:45:00,65.7,64.8,29.68,SSE,155,2.0,17.0,97,0.08,,,0.24,28.0,meteohub,2013-02-26 13:45:00,
2013-02-26 08:50:00,65.7,64.8,29.68,ESE,119,7.0,12.0,97,0.09,,,0.25,23.0,meteohub,2013-02-26 13:50:00,
2013-02-26 08:55:00,65.8,64.9,29.69,SSE,154,9.0,14.0,97,0.10,,,0.26,11.0,meteohub,2013-02-26 13:55:00,
2013-02-26 09:00:00,66.0,65.1,29.69,SSE,149,7.0,18.0,97,0.12,,,0.28,23.0,meteohub,2013-02-26 14:00:00,
2013-02-26 09:05:00,66.2,65.3,29.69,SSE,156,4.0,18.0,97,0.13,,,0.29,42.0,meteohub,2013-02-26 14:05:00,
2013-02-26 09:10:00,66.2,65.3,29.69,ESE,106,2.0,14.0,97,0.14,,,0.30,32.0,meteohub,2013-02-26 14:10:00,
2013-02-26 09:15:00,66.2,65.3,29.69,SSW,211,11.0,14.0,97,0.14,,,0.30,23.0,meteohub,2013-02-26 14:15:00,
2013-02-26 09:20:00,66.4,65.5,29.69,SSW,200,0.0,13.0,97,0.14,,,0.31,19.0,meteohub,2013-02-26 14:20:00,
2013-02-26 09:25:00,66.4,65.5,29.70,WSW,242,0.0,11.0,97,0.13,,,0.31,11.0,meteohub,2013-02-26 14:25:00,
2013-02-26 09:30:00,66.4,65.5,29.70,SSE,153,1.0,11.0,97,0.09,,,0.31,9.0,meteohub,2013-02-26 14:30:00,
2013-02-26 09:35:00,66.4,65.5,29.70,SSW,203,1.0,7.0,97,0.08,,,0.31,9.0,meteohub,2013-02-26 14:35:00,
2013-02-26 09:40:00,66.4,65.5,29.69,SE,144,1.0,7.0,97,0.08,,,0.31,35.0,meteohub,2013-02-26 14:40:00,
2013-02-26 09:45:00,66.4,65.5,29.70,SSE,152,7.0,13.0,97,0.08,,,0.32,25.0,meteohub,2013-02-26 14:45:00,
2013-02-26 09:50:00,66.4,65.5,29.68,SSE,164,5.0,13.0,97,0.07,,,0.32,18.0,meteohub,2013-02-26 14:50:00,
2013-02-26 09:55:00,66.6,65.7,29.67,South,182,6.0,13.0,97,0.06,,,0.33,37.0,meteohub,2013-02-26 14:55:00,
2013-02-26 10:00:00,66.7,65.8,29.66,SSW,205,4.0,15.0,97,0.06,,,0.34,33.0,meteohub,2013-02-26 15:00:00,
2013-02-26 10:05:00,66.9,66.0,29.65,SE,138,8.0,18.0,97,0.05,,,0.34,51.0,meteohub,2013-02-26 15:05:00,
2013-02-26 10:10:00,66.9,66.0,29.65,SE,138,4.0,18.0,97,0.05,,,0.35,93.0,meteohub,2013-02-26 15:10:00,
2013-02-26 10:15:00,66.9,66.0,29.66,South,176,9.0,22.0,97,0.05,,,0.35,53.0,meteohub,2013-02-26 15:15:00,
2013-02-26 10:20:00,67.1,66.2,29.66,SSE,154,9.0,22.0,97,0.04,,,0.35,109.0,meteohub,2013-02-26 15:20:00,
2013-02-26 10:25:00,67.3,66.4,29.65,SSE,163,2.0,22.0,97,0.04,,,0.35,246.0,meteohub,2013-02-26 15:25:00,
2013-02-26 10:30:00,67.5,66.6,29.66,South,190,10.0,16.0,97,0.04,,,0.35,265.0,meteohub,2013-02-26 15:30:00,
2013-02-26 10:35:00,67.6,66.7,29.66,South,187,3.0,14.0,97,0.04,,,0.35,142.0,meteohub,2013-02-26 15:35:00,
2013-02-26 10:40:00,67.6,66.7,29.66,SSE,167,8.0,14.0,97,0.04,,,0.35,144.0,meteohub,2013-02-26 15:40:00,
2013-02-26 10:45:00,67.6,66.7,29.66,SSW,196,3.0,14.0,97,0.03,,,0.35,230.0,meteohub,2013-02-26 15:45:00,
2013-02-26 10:50:00,67.8,66.9,29.66,SSW,199,3.0,13.0,97,0.02,,,0.35,253.0,meteohub,2013-02-26 15:50:00,
2013-02-26 10:55:00,67.8,66.9,29.66,SSE,156,4.0,14.0,97,0.01,,,0.35,274.0,meteohub,2013-02-26 15:55:00,
2013-02-26 11:00:00,68.0,67.1,29.66,South,178,8.0,14.0,97,0.01,,,0.35,204.0,meteohub,2013-02-26 16:00:00,
2013-02-26 11:05:00,68.2,67.3,29.66,South,176,2.0,14.0,97,0.00,,,0.35,292.0,meteohub,2013-02-26 16:05:00,
2013-02-26 11:11:00,68.5,67.6,29.66,SSW,201,0.0,13.0,97,0.00,,,0.35,417.0,meteohub,2013-02-26 16:11:00,
2013-02-26 11:16:00,68.7,67.5,29.66,SSW,200,7.0,16.0,96,0.00,,,0.35,176.0,meteohub,2013-02-26 16:16:00,
2013-02-26 11:21:00,68.9,67.6,29.66,SSW,197,1.0,16.0,96,0.00,,,0.35,274.0,meteohub,2013-02-26 16:21:00,
2013-02-26 11:26:00,69.1,68.2,29.66,WSW,246,4.0,16.0,97,0.00,,,0.35,302.0,meteohub,2013-02-26 16:26:00,
2013-02-26 11:31:00,69.3,68.0,29.66,South,175,7.0,15.0,96,0.00,,,0.35,297.0,meteohub,2013-02-26 16:31:00,
2013-02-26 11:36:00,69.4,68.2,29.66,SSE,164,3.0,14.0,96,0.00,,,0.35,434.0,meteohub,2013-02-26 16:36:00,
2013-02-26 11:41:00,70.0,68.7,29.66,South,187,3.0,14.0,96,0.00,,,0.35,457.0,meteohub,2013-02-26 16:41:00,
2013-02-26 11:46:00,70.5,69.3,29.66,SW,234,5.0,14.0,96,0.00,,,0.35,457.0,meteohub,2013-02-26 16:46:00,
2013-02-26 11:51:00,70.9,69.6,29.65,SW,222,3.0,13.0,96,0.00,,,0.35,680.0,meteohub,2013-02-26 16:51:00,
2013-02-26 11:56:00,71.2,70.0,29.65,SSE,167,8.0,13.0,96,0.00,,,0.35,473.0,meteohub,2013-02-26 16:56:00,
2013-02-26 12:01:00,71.8,70.3,29.65,SE,138,2.0,12.0,95,0.00,,,0.35,751.0,meteohub,2013-02-26 17:01:00,
2013-02-26 12:06:00,72.0,70.2,29.64,SSE,148,7.0,15.0,94,0.00,,,0.35,759.0,meteohub,2013-02-26 17:06:00,
2013-02-26 12:11:00,72.3,70.5,29.64,SW,217,3.0,15.0,94,0.00,,,0.35,554.0,meteohub,2013-02-26 17:11:00,
2013-02-26 12:16:00,72.9,70.7,29.63,WSW,249,3.0,15.0,93,0.00,,,0.35,719.0,meteohub,2013-02-26 17:16:00,
2013-02-26 12:21:00,72.9,70.7,29.63,SW,217,11.0,13.0,93,0.00,,,0.35,788.0,meteohub,2013-02-26 17:21:00,
2013-02-26 12:26:00,73.0,70.3,29.63,WSW,247,2.0,11.0,91,0.00,,,0.35,784.0,meteohub,2013-02-26 17:26:00,
2013-02-26 12:31:00,73.6,70.7,29.63,WSW,244,7.0,11.0,91,0.00,,,0.35,751.0,meteohub,2013-02-26 17:31:00,
2013-02-26 12:36:00,73.6,70.2,29.63,SW,214,5.0,16.0,89,0.00,,,0.35,837.0,meteohub,2013-02-26 17:36:00,
2013-02-26 12:41:00,73.8,70.0,29.64,South,174,8.0,16.0,88,0.00,,,0.35,944.0,meteohub,2013-02-26 17:41:00,
2013-02-26 12:46:00,74.1,70.3,29.63,SSE,148,5.0,16.0,88,0.00,,,0.35,856.0,meteohub,2013-02-26 17:46:00,
2013-02-26 12:51:00,74.1,69.6,29.63,SW,233,3.0,14.0,86,0.00,,,0.35,570.0,meteohub,2013-02-26 17:51:00,
2013-02-26 12:56:00,74.3,69.8,29.64,SW,226,3.0,12.0,86,0.00,,,0.35,547.0,meteohub,2013-02-26 17:56:00,
2013-02-26 13:01:00,74.5,69.6,29.63,South,179,6.0,12.0,85,0.00,,,0.35,740.0,meteohub,2013-02-26 18:01:00,
2013-02-26 13:06:00,75.0,70.2,29.64,SSW,203,2.0,12.0,85,0.00,,,0.35,689.0,meteohub,2013-02-26 18:06:00,
2013-02-26 13:11:00,75.0,69.4,29.63,SSW,210,3.0,12.0,83,0.00,,,0.35,603.0,meteohub,2013-02-26 18:11:00,
2013-02-26 13:16:00,75.4,69.8,29.63,South,172,7.0,12.0,83,0.00,,,0.35,666.0,meteohub,2013-02-26 18:16:00,
2013-02-26 13:21:00,75.4,69.8,29.63,SW,227,1.0,14.0,83,0.00,,,0.35,575.0,meteohub,2013-02-26 18:21:00,
2013-02-26 13:26:00,75.4,69.4,29.62,SE,130,5.0,14.0,82,0.00,,,0.35,612.0,meteohub,2013-02-26 18:26:00,
2013-02-26 13:31:00,75.4,69.4,29.62,SW,214,2.0,14.0,82,0.00,,,0.35,714.0,meteohub,2013-02-26 18:31:00,
2013-02-26 13:36:00,75.7,69.8,29.62,WSW,237,8.0,11.0,82,0.00,,,0.35,476.0,meteohub,2013-02-26 18:36:00,
2013-02-26 13:41:00,76.1,69.8,29.62,SW,236,6.0,11.0,81,0.00,,,0.35,816.0,meteohub,2013-02-26 18:41:00,
2013-02-26 13:46:00,76.5,69.8,29.61,SW,225,5.0,9.0,80,0.00,,,0.35,872.0,meteohub,2013-02-26 18:46:00,
2013-02-26 13:51:00,76.8,69.8,29.62,South,178,2.0,11.0,79,0.00,,,0.35,803.0,meteohub,2013-02-26 18:51:00,
2013-02-26 13:56:00,77.2,69.8,29.62,WNW,295,3.0,13.0,78,0.00,,,0.35,541.0,meteohub,2013-02-26 18:56:00,
2013-02-26 14:01:00,77.0,69.6,29.61,SSW,199,8.0,16.0,78,0.00,,,0.35,490.0,meteohub,2013-02-26 19:01:00,
2013-02-26 14:06:00,77.2,69.1,29.62,WSW,243,3.0,17.0,76,0.00,,,0.35,385.0,meteohub,2013-02-26 19:06:00,
2013-02-26 14:11:00,76.8,69.1,29.62,SSW,211,0.0,17.0,77,0.00,,,0.35,454.0,meteohub,2013-02-26 19:11:00,
2013-02-26 14:16:00,76.6,68.5,29.62,NW,320,1.0,12.0,76,0.00,,,0.35,371.0,meteohub,2013-02-26 19:16:00,
2013-02-26 14:21:00,76.8,68.7,29.62,WSW,256,2.0,12.0,76,0.00,,,0.35,339.0,meteohub,2013-02-26 19:21:00,
2013-02-26 14:26:00,76.8,68.4,29.62,WSW,240,7.0,12.0,75,0.00,,,0.35,534.0,meteohub,2013-02-26 19:26:00,
2013-02-26 14:31:00,76.8,67.8,29.62,WSW,240,0.0,10.0,74,0.00,,,0.35,311.0,meteohub,2013-02-26 19:31:00,
2013-02-26 14:36:00,76.8,67.8,29.62,SW,215,7.0,14.0,74,0.00,,,0.35,394.0,meteohub,2013-02-26 19:36:00,
2013-02-26 14:41:00,76.8,67.5,29.62,SW,221,7.0,14.0,73,0.00,,,0.35,441.0,meteohub,2013-02-26 19:41:00,
2013-02-26 14:46:00,76.8,67.1,29.62,SW,229,7.0,11.0,72,0.00,,,0.35,731.0,meteohub,2013-02-26 19:46:00,
2013-02-26 14:51:00,77.2,66.6,29.62,SW,228,5.0,14.0,70,0.00,,,0.35,315.0,meteohub,2013-02-26 19:51:00,
2013-02-26 14:56:00,76.8,66.2,29.62,SW,234,4.0,14.0,70,0.00,,,0.35,531.0,meteohub,2013-02-26 19:56:00,
2013-02-26 15:01:00,77.2,65.8,29.62,West,261,9.0,14.0,68,0.00,,,0.35,429.0,meteohub,2013-02-26 20:01:00,
2013-02-26 15:06:00,76.8,65.8,29.62,SSW,211,5.0,14.0,69,0.00,,,0.35,343.0,meteohub,2013-02-26 20:06:00,
2013-02-26 15:11:00,76.5,65.5,29.62,WSW,244,4.0,13.0,69,0.00,,,0.35,348.0,meteohub,2013-02-26 20:11:00,
2013-02-26 15:16:00,76.5,65.5,29.62,SSW,205,2.0,13.0,69,0.00,,,0.35,332.0,meteohub,2013-02-26 20:16:00,
2013-02-26 15:21:00,76.5,65.5,29.62,SW,215,1.0,11.0,69,0.00,,,0.35,394.0,meteohub,2013-02-26 20:21:00,
2013-02-26 15:27:00,76.6,64.9,29.62,SW,235,8.0,10.0,67,0.00,,,0.35,360.0,meteohub,2013-02-26 20:27:00,
2013-02-26 15:32:00,76.6,65.3,29.62,SW,215,0.0,9.0,68,0.00,,,0.35,283.0,meteohub,2013-02-26 20:32:00,
2013-02-26 15:37:00,76.6,65.3,29.62,SSW,205,4.0,16.0,68,0.00,,,0.35,345.0,meteohub,2013-02-26 20:37:00,
2013-02-26 15:42:00,76.5,65.1,29.62,SSW,205,0.0,16.0,68,0.00,,,0.35,301.0,meteohub,2013-02-26 20:42:00,
2013-02-26 15:47:00,76.5,65.1,29.62,SW,214,1.0,16.0,68,0.00,,,0.35,292.0,meteohub,2013-02-26 20:47:00,
2013-02-26 15:52:00,76.6,64.9,29.61,SSE,153,0.0,11.0,67,0.00,,,0.35,276.0,meteohub,2013-02-26 20:52:00,
2013-02-26 15:57:00,76.6,64.9,29.62,WSW,251,3.0,12.0,67,0.00,,,0.35,301.0,meteohub,2013-02-26 20:57:00,
2013-02-26 16:02:00,76.6,64.4,29.62,WNW,288,1.0,12.0,66,0.00,,,0.35,417.0,meteohub,2013-02-26 21:02:00,
2013-02-26 16:07:00,76.5,63.3,29.62,West,263,2.0,13.0,64,0.00,,,0.35,234.0,meteohub,2013-02-26 21:07:00,
2013-02-26 16:12:00,76.1,62.6,29.62,WSW,238,5.0,13.0,63,0.00,,,0.35,338.0,meteohub,2013-02-26 21:12:00,
2013-02-26 16:17:00,75.9,61.9,29.62,SSW,209,7.0,15.0,62,0.00,,,0.35,250.0,meteohub,2013-02-26 21:17:00,
2013-02-26 16:22:00,76.1,62.6,29.61,South,172,0.0,15.0,63,0.00,,,0.35,292.0,meteohub,2013-02-26 21:22:00,
2013-02-26 16:27:00,76.3,62.2,29.62,WSW,258,6.0,11.0,62,0.00,,,0.35,483.0,meteohub,2013-02-26 21:27:00,
2013-02-26 16:32:00,76.6,62.6,29.62,SW,218,1.0,11.0,62,0.00,,,0.35,445.0,meteohub,2013-02-26 21:32:00,
2013-02-26 16:37:00,76.8,62.4,29.61,SW,228,2.0,11.0,61,0.00,,,0.35,383.0,meteohub,2013-02-26 21:37:00,
2013-02-26 16:42:00,77.2,62.6,29.62,West,281,1.0,11.0,61,0.00,,,0.35,357.0,meteohub,2013-02-26 21:42:00,
2013-02-26 16:47:00,77.0,62.6,29.61,WSW,237,0.0,14.0,61,0.00,,,0.35,334.0,meteohub,2013-02-26 21:47:00,
2013-02-26 16:52:00,76.8,62.4,29.61,SSW,192,1.0,14.0,61,0.00,,,0.35,311.0,meteohub,2013-02-26 21:52:00,
2013-02-26 16:57:00,76.8,62.4,29.61,SSE,148,3.0,14.0,61,0.00,,,0.35,260.0,meteohub,2013-02-26 21:57:00,
2013-02-26 17:02:00,76.8,62.4,29.61,SW,233,0.0,11.0,61,0.00,,,0.35,262.0,meteohub,2013-02-26 22:02:00,
2013-02-26 17:07:00,76.6,61.7,29.61,WSW,252,0.0,9.0,60,0.00,,,0.35,237.0,meteohub,2013-02-26 22:07:00,
2013-02-26 17:12:00,76.3,61.0,29.61,SW,235,3.0,13.0,59,0.00,,,0.35,190.0,meteohub,2013-02-26 22:12:00,
2013-02-26 17:17:00,75.7,60.4,29.61,SW,229,2.0,13.0,59,0.00,,,0.35,144.0,meteohub,2013-02-26 22:17:00,
2013-02-26 17:22:00,75.6,59.7,29.61,South,173,2.0,13.0,58,0.00,,,0.35,178.0,meteohub,2013-02-26 22:22:00,
2013-02-26 17:27:00,75.2,59.4,29.61,SSE,165,3.0,11.0,58,0.00,,,0.35,114.0,meteohub,2013-02-26 22:27:00,
2013-02-26 17:32:00,74.8,59.0,29.61,West,260,7.0,10.0,58,0.00,,,0.35,53.0,meteohub,2013-02-26 22:32:00,
2013-02-26 17:37:00,74.3,58.1,29.61,SW,232,6.0,9.0,57,0.00,,,0.35,37.0,meteohub,2013-02-26 22:37:00,
2013-02-26 17:42:00,73.9,57.7,29.62,West,263,0.0,11.0,57,0.00,,,0.35,32.0,meteohub,2013-02-26 22:42:00,
2013-02-26 17:47:00,73.6,57.4,29.62,SSE,150,2.0,11.0,57,0.00,,,0.35,30.0,meteohub,2013-02-26 22:47:00,
2013-02-26 17:52:00,73.2,56.7,29.62,SSW,198,5.0,11.0,56,0.00,,,0.35,26.0,meteohub,2013-02-26 22:52:00,
2013-02-26 17:57:00,73.0,56.5,29.62,SW,224,2.0,14.0,56,0.00,,,0.35,26.0,meteohub,2013-02-26 22:57:00,
2013-02-26 18:02:00,72.7,56.1,29.63,SW,222,3.0,14.0,56,0.00,,,0.35,18.0,meteohub,2013-02-26 23:02:00,
2013-02-26 18:07:00,72.3,55.8,29.63,SW,236,6.0,14.0,56,0.00,,,0.35,12.0,meteohub,2013-02-26 23:07:00,
2013-02-26 18:12:00,72.1,55.6,29.63,SW,223,0.0,13.0,56,0.00,,,0.35,7.0,meteohub,2013-02-26 23:12:00,
2013-02-26 18:17:00,71.8,55.2,29.64,SW,236,6.0,13.0,56,0.00,,,0.35,0.0,meteohub,2013-02-26 23:17:00,
2013-02-26 18:22:00,71.2,55.2,29.64,SSW,213,0.0,9.0,57,0.00,,,0.35,0.0,meteohub,2013-02-26 23:22:00,
2013-02-26 18:27:00,70.9,54.9,29.65,WSW,242,8.0,9.0,57,0.00,,,0.35,0.0,meteohub,2013-02-26 23:27:00,
2013-02-26 18:32:00,70.7,54.7,29.65,SSE,158,0.0,10.0,57,0.00,,,0.35,0.0,meteohub,2013-02-26 23:32:00,
2013-02-26 18:37:00,70.5,54.5,29.65,WSW,248,6.0,10.0,57,0.00,,,0.35,0.0,meteohub,2013-02-26 23:37:00,
2013-02-26 18:42:00,70.3,54.3,29.65,SW,225,1.0,10.0,57,0.00,,,0.35,0.0,meteohub,2013-02-26 23:42:00,
2013-02-26 18:47:00,70.2,54.1,29.66,SW,218,2.0,9.0,57,0.00,,,0.35,0.0,meteohub,2013-02-26 23:47:00,
2013-02-26 18:52:00,70.0,54.5,29.66,SW,236,0.0,15.0,58,0.00,,,0.35,0.0,meteohub,2013-02-26 23:52:00,
2013-02-26 18:57:00,69.8,54.3,29.67,SSW,202,1.0,15.0,58,0.00,,,0.35,0.0,meteohub,2013-02-26 23:57:00,
2013-02-26 19:02:00,69.6,54.1,29.67,South,180,1.0,15.0,58,0.00,,,0.35,0.0,meteohub,2013-02-27 00:02:00,
2013-02-26 19:07:00,69.4,54.0,29.68,WSW,250,1.0,12.0,58,0.00,,,0.35,0.0,meteohub,2013-02-27 00:07:00,
2013-02-26 19:12:00,69.3,53.8,29.68,SSW,196,0.0,13.0,58,0.00,,,0.35,0.0,meteohub,2013-02-27 00:12:00,
2013-02-26 19:17:00,69.1,53.6,29.68,SSW,195,2.0,13.0,58,0.00,,,0.35,0.0,meteohub,2013-02-27 00:17:00,
2013-02-26 19:22:00,68.7,53.4,29.68,SW,232,5.0,13.0,58,0.00,,,0.35,0.0,meteohub,2013-02-27 00:22:00,
2013-02-26 19:27:00,68.5,53.2,29.68,SE,146,1.0,10.0,58,0.00,,,0.35,0.0,meteohub,2013-02-27 00:27:00,
2013-02-26 19:32:00,68.4,53.4,29.69,WSW,238,5.0,10.0,59,0.00,,,0.35,0.0,meteohub,2013-02-27 00:32:00,
2013-02-26 19:37:00,68.2,53.2,29.69,SW,227,1.0,10.0,59,0.00,,,0.35,0.0,meteohub,2013-02-27 00:37:00,
2013-02-26 19:42:00,68.0,53.1,29.69,South,191,0.0,10.0,59,0.00,,,0.35,0.0,meteohub,2013-02-27 00:42:00,
2013-02-26 19:47:00,67.8,52.9,29.69,WSW,243,1.0,13.0,59,0.00,,,0.35,0.0,meteohub,2013-02-27 00:47:00,
2013-02-26 19:52:00,67.5,52.7,29.69,WSW,246,4.0,13.0,59,0.00,,,0.35,0.0,meteohub,2013-02-27 00:52:00,
2013-02-26 19:57:00,67.3,52.5,29.70,SW,227,0.0,13.0,59,0.00,,,0.35,0.0,meteohub,2013-02-27 00:57:00,
2013-02-26 20:02:00,66.9,52.5,29.70,SSW,196,4.0,10.0,60,0.00,,,0.35,0.0,meteohub,2013-02-27 01:02:00,
2013-02-26 20:07:00,66.7,52.3,29.70,SW,223,2.0,10.0,60,0.00,,,0.35,0.0,meteohub,2013-02-27 01:07:00,
2013-02-26 20:13:00,66.6,52.2,29.70,SW,215,7.0,7.0,60,0.00,,,0.35,0.0,meteohub,2013-02-27 01:13:00,
2013-02-26 20:18:00,66.6,52.2,29.70,SSE,163,5.0,13.0,60,0.00,,,0.35,0.0,meteohub,2013-02-27 01:18:00,
2013-02-26 20:23:00,66.6,52.7,29.71,SSW,204,0.0,13.0,61,0.00,,,0.35,0.0,meteohub,2013-02-27 01:23:00,
2013-02-26 20:28:00,66.2,52.3,29.71,SSW,209,2.0,13.0,61,0.00,,,0.35,0.0,meteohub,2013-02-27 01:28:00,
2013-02-26 20:33:00,66.0,52.2,29.71,SW,227,3.0,11.0,61,0.00,,,0.35,0.0,meteohub,2013-02-27 01:33:00,
2013-02-26 20:38:00,65.8,52.5,29.71,SSW,211,6.0,11.0,62,0.00,,,0.35,0.0,meteohub,2013-02-27 01:38:00,
2013-02-26 20:43:00,65.8,52.5,29.71,SE,134,0.0,10.0,62,0.00,,,0.35,0.0,meteohub,2013-02-27 01:43:00,
2013-02-26 20:48:00,65.7,52.3,29.71,SSW,194,3.0,12.0,62,0.00,,,0.35,0.0,meteohub,2013-02-27 01:48:00,
2013-02-26 20:53:00,65.5,52.5,29.72,SW,228,3.0,12.0,63,0.00,,,0.35,0.0,meteohub,2013-02-27 01:53:00,
2013-02-26 20:58:00,65.3,52.3,29.72,WSW,240,5.0,12.0,63,0.00,,,0.35,0.0,meteohub,2013-02-27 01:58:00,
2013-02-26 21:03:00,65.1,52.7,29.72,SSW,205,0.0,11.0,64,0.00,,,0.35,0.0,meteohub,2013-02-27 02:03:00,
2013-02-26 21:08:00,64.8,52.3,29.72,South,182,3.0,11.0,64,0.00,,,0.35,0.0,meteohub,2013-02-27 02:08:00,
2013-02-26 21:13:00,64.8,52.7,29.72,WSW,244,5.0,11.0,65,0.00,,,0.35,0.0,meteohub,2013-02-27 02:13:00,
2013-02-26 21:18:00,64.6,52.5,29.72,SW,226,7.0,14.0,65,0.00,,,0.35,0.0,meteohub,2013-02-27 02:18:00,
2013-02-26 21:23:00,64.4,52.3,29.73,SW,230,0.0,14.0,65,0.00,,,0.35,0.0,meteohub,2013-02-27 02:23:00,
2013-02-26 21:28:00,64.0,52.5,29.73,SSW,199,3.0,14.0,66,0.00,,,0.35,0.0,meteohub,2013-02-27 02:28:00,
2013-02-26 21:33:00,64.0,52.5,29.72,SW,218,6.0,9.0,66,0.00,,,0.35,0.0,meteohub,2013-02-27 02:33:00,
2013-02-26 21:38:00,63.7,52.2,29.73,SW,236,3.0,9.0,66,0.00,,,0.35,0.0,meteohub,2013-02-27 02:38:00,
2013-02-26 21:43:00,63.7,52.5,29.73,South,190,1.0,7.0,67,0.00,,,0.35,0.0,meteohub,2013-02-27 02:43:00,
2013-02-26 21:48:00,63.3,52.2,29.73,SSW,194,1.0,15.0,67,0.00,,,0.35,0.0,meteohub,2013-02-27 02:48:00,
2013-02-26 21:53:00,63.1,52.0,29.73,SW,219,3.0,15.0,67,0.00,,,0.35,0.0,meteohub,2013-02-27 02:53:00,
2013-02-26 21:58:00,63.0,52.2,29.73,SE,140,3.0,9.0,68,0.00,,,0.35,0.0,meteohub,2013-02-27 02:58:00,
2013-02-26 22:03:00,63.0,51.8,29.73,South,175,0.0,11.0,67,0.00,,,0.35,0.0,meteohub,2013-02-27 03:03:00,
2013-02-26 22:08:00,62.8,51.6,29.74,SW,232,0.0,12.0,67,0.00,,,0.35,0.0,meteohub,2013-02-27 03:08:00,
2013-02-26 22:13:00,62.6,52.0,29.74,SW,236,6.0,12.0,68,0.00,,,0.35,0.0,meteohub,2013-02-27 03:13:00,
2013-02-26 22:18:00,62.4,51.8,29.74,SSW,213,2.0,12.0,68,0.00,,,0.35,0.0,meteohub,2013-02-27 03:18:00,
2013-02-26 22:23:00,62.2,51.6,29.74,SW,221,0.0,11.0,68,0.00,,,0.35,0.0,meteohub,2013-02-27 03:23:00,
2013-02-26 22:28:00,62.1,51.4,29.75,WSW,255,1.0,11.0,68,0.00,,,0.35,0.0,meteohub,2013-02-27 03:28:00,
2013-02-26 22:33:00,61.9,51.3,29.75,SE,134,0.0,11.0,68,0.00,,,0.35,0.0,meteohub,2013-02-27 03:33:00,
2013-02-26 22:38:00,61.5,51.3,29.76,West,264,0.0,11.0,69,0.00,,,0.35,0.0,meteohub,2013-02-27 03:38:00,
2013-02-26 22:43:00,61.3,51.1,29.76,WSW,256,3.0,6.0,69,0.00,,,0.35,0.0,meteohub,2013-02-27 03:43:00,
2013-02-26 22:48:00,61.3,51.1,29.76,SW,236,1.0,8.0,69,0.00,,,0.35,0.0,meteohub,2013-02-27 03:48:00,
2013-02-26 22:53:00,61.2,50.9,29.77,WSW,244,0.0,10.0,69,0.00,,,0.35,0.0,meteohub,2013-02-27 03:53:00,
2013-02-26 22:58:00,61.0,51.1,29.77,WSW,237,8.0,10.0,70,0.00,,,0.35,0.0,meteohub,2013-02-27 03:58:00,
2013-02-26 23:03:00,61.0,51.1,29.76,SSW,195,1.0,10.0,70,0.00,,,0.35,0.0,meteohub,2013-02-27 04:03:00,
2013-02-26 23:08:00,60.8,50.9,29.76,WSW,248,0.0,11.0,70,0.00,,,0.35,0.0,meteohub,2013-02-27 04:08:00,
2013-02-26 23:13:00,60.6,51.1,29.76,WSW,237,0.0,11.0,71,0.00,,,0.35,0.0,meteohub,2013-02-27 04:13:00,
2013-02-26 23:18:00,60.6,51.1,29.77,SW,221,4.0,11.0,71,0.00,,,0.35,0.0,meteohub,2013-02-27 04:18:00,
2013-02-26 23:23:00,60.4,51.1,29.77,WSW,246,1.0,12.0,71,0.00,,,0.35,0.0,meteohub,2013-02-27 04:23:00,
2013-02-26 23:28:00,60.4,51.1,29.77,SW,229,0.0,12.0,71,0.00,,,0.35,0.0,meteohub,2013-02-27 04:28:00,
2013-02-26 23:33:00,60.3,50.9,29.77,WSW,245,0.0,12.0,71,0.00,,,0.35,0.0,meteohub,2013-02-27 04:33:00,
2013-02-26 23:38:00,60.3,50.9,29.77,SSW,194,1.0,9.0,71,0.00,,,0.35,0.0,meteohub,2013-02-27 04:38:00,
2013-02-26 23:43:00,60.1,51.1,29.77,WSW,244,1.0,9.0,72,0.00,,,0.35,0.0,meteohub,2013-02-27 04:43:00,
2013-02-26 23:48:00,59.7,50.7,29.77,SW,214,2.0,10.0,72,0.00,,,0.35,0.0,meteohub,2013-02-27 04:48:00,
2013-02-26 23:53:00,59.5,50.5,29.78,SW,217,0.0,10.0,72,0.00,,,0.35,0.0,meteohub,2013-02-27 04:53:00,
2013-02-26 23:58:00,59.4,50.4,29.77,WSW,248,4.0,8.0,72,0.00,,,0.35,0.0,meteohub,2013-02-27 04:58:00,